SCP
1 1 1 1 1 1 1 0 0 0 0 0 0 0 0 0 0 0 0 0 0 0 0 0 0 0 0 0 0 0 0 0 0 0 0 0 0 0 0 0 0 0 0
3 2 2 1 0 0 0 1 0 0 0 0 0 0 0 0 0 0 1 0 0 0 0 0 0 0 0 0 0 0 0 0 0 0 0 0 0 0 0 0 0 0 0
4 2 2 1 1 1 1 0 1 0 1 1 1 0 0 0 0 1 1 0 0 0 0 0 0 0 0 0 0 0 0 0 0 0 0 0 0 0 0 0 0 0 0
6 5 4 3 2 1 1 1 1 0 1 1 1 0 0 0 0 0 1 1 0 0 0 0 0 0 0 0 0 0 0 0 0 0 0 0 0 0 0 0 0 0 0
8 8 6 4 5 3 2 1 1 1 1 1 1 1 0 0 0 0 1 1 1 0 0 0 0 0 0 0 0 0 0 0 0 0 0 0 0 0 0 0 0 0 0
8 9 6 6 5 4 2 2 1 1 2 2 0 0 0 0 2 1 2 3 2 1 0 0 0 0 0 0 0 0 0 0 0 0 0 0 0 0 0 0 0 0 0
3 5 6 6 5 5 3 2 2 2 0 1 2 0 1 3 3 4 5 3 2 1 0 0 0 0 0 0 0 0 0 0 0 0 0 0 0 0 0 0 0 0 0
1 2 2 2 4 4 3 3 3 2 3 2 2 1 1 3 1 0 2 1 0 0 0 0 0 0 0 0 0 0 0 0 0 0 0 0 0 0 0 0 0 0 0
1 1 1 1 1 4 4 3 3 2 2 3 1 2 1 1 1 0 0 0 0 0 0 0 0 0 0 0 0 0 0 0 0 0 0 0 0 0 0 0 0 0 0
0 1 1 4 6 5 3 3 3 2 2 1 1 1 1 1 0 0 0 0 0 0 0 0 0 0 0 0 0 0 0 0 0 0 0 0 0 0 0 0 0 0 0
0 0 0 0 0 6 3 2 3 2 2 2 1 1 1 1 1 0 0 0 0 0 0 0 0 0 0 0 0 0 0 0 0 0 0 0 0 0 0 0 0 0 0
0 0 -0 0 0 0 1 2 2 2 2 2 2 1 1 1 1 0 0 0 0 0 0 0 0 0 0 0 0 0 0 0 0 0 0 0 0 0 0 0 0 0 0
0 0 0 0 0 0 0 1 2 2 2 2 2 1 1 1 1 0 0 0 0 0 0 0 0 0 0 0 0 0 0 0 0 0 0 0 0 0 0 0 0 0 0
-0 -0 0 0 -0 0 0 1 3 3 2 2 1 1 0 1 2 0 0 0 0 0 0 0 0 0 0 0 0 0 0 0 0 0 0 0 0 0 0 0 0 0 0
0 0 -0 -0 1 1 0 1 2 2 3 2 2 1 1 1 1 0 0 0 0 0 0 0 0 0 0 0 0 0 0 0 0 0 0 0 0 0 0 0 0 0 0
0 0 0 -0 -0 1 0 0 0 1 2 3 2 2 2 2 1 0 0 0 0 0 0 0 0 0 0 0 0 0 0 0 0 0 0 0 0 0 0 0 0 0 0
0 0 0 0 0 1 0 0 0 0 1 1 2 2 2 3 2 1 0 0 0 0 0 0 0 0 0 0 0 0 0 0 0 0 0 0 0 0 0 0 0 0 0
0 0 0 0 0 1 1 1 0 0 1 1 2 3 3 3 2 1 0 0 0 0 0 0 0 0 0 0 0 0 0 0 0 0 -0 0 0 0 0 0 0 0 0
-0 0 0 0 0 1 1 1 1 1 1 1 1 2 3 1 1 1 0 0 0 0 0 0 0 0 0 0 0 0 0 0 0 0 0 0 0 0 0 0 0 0 0
-0 0 0 0 0 0 0 0 1 1 1 1 2 2 2 1 1 1 0 0 0 0 0 0 0 0 0 0 0 0 0 0 0 0 0 -0 -0 0 0 0 0 0 0
0 0 0 0 0 -0 0 0 0 0 0 1 2 2 2 1 0 0 0 0 0 0 0 0 0 0 0 0 0 0 0 0 0 0 -0 -0 -0 0 -0 -0 -0 -0 -0
0 0 0 0 0 0 0 0 0 0 0 0 1 2 1 0 0 0 0 0 0 0 0 0 0 0 0 0 0 0 0 0 0 0 0 0 0 0 -0 -0 -0 0 0
0 0 0 0 0 1 0 0 0 0 0 0 0 0 0 0 0 0 0 0 0 0 0 0 0 0 0 -0 0 0 0 0 0 0 0 -0 0 0 0 -0 -0 -0 -0
0 0 0 0 0 0 0 0 0 0 -0 0 0 0 0 0 0 0 0 0 0 0 0 0 0 0 -0 -0 0 0 0 0 0 0 0 0 0 0 0 -0 -0 -0 -0
0 0 0 0 0 0 0 0 0 0 0 0 0 0 0 0 0 0 0 0 0 0 0 0 0 0 -0 -0 0 0 0 0 0 0 0 0 0 0 0 0 0 0 -0
0 0 0 0 0 0 0 0 0 0 0 0 0 0 0 0 0 0 0 0 0 0 0 0 0 0 -0 -0 0 0 0 0 0 0 0 0 0 0 0 0 0 0 0
Wind_Speed_500mb
29 35 40 36 41 39 31 30 39 39 32 26 26 36 43 29 29 37 27 25 26 26 29 25 15 12 11 8 13 16 24 30 42 48 55 60 61 50 42 37 35 36 29
35 40 48 49 47 40 39 34 38 29 48 35 35 45 37 35 31 31 34 36 36 36 33 29 18 14 12 11 16 20 27 31 41 47 54 60 59 46 38 36 35 30 31
44 41 46 46 57 53 50 39 41 43 42 48 43 38 35 38 33 36 47 41 34 33 32 31 20 16 11 20 18 24 30 33 41 47 54 58 56 44 37 37 38 38 34
52 48 52 47 47 42 50 54 45 43 43 50 45 38 41 34 34 38 42 46 40 32 31 25 19 17 13 26 26 30 33 35 41 48 55 55 48 37 36 36 35 35 34
60 61 58 54 53 51 50 53 53 55 48 47 45 42 43 40 33 41 44 51 40 36 28 22 23 22 21 29 29 31 34 38 41 49 54 51 39 34 36 37 37 37 35
63 71 64 57 53 58 59 61 66 49 49 50 46 41 53 44 37 44 46 47 38 32 28 24 30 27 31 34 38 29 33 36 41 49 50 47 41 31 32 34 35 36 37
46 65 75 68 50 63 55 65 64 58 53 53 42 40 36 47 49 37 36 40 33 33 29 29 30 32 38 39 33 32 33 32 39 47 43 44 37 33 33 34 35 36 38
77 83 65 59 50 53 54 57 66 59 57 50 51 48 39 42 42 49 35 32 35 33 32 37 40 36 33 40 36 32 30 29 39 39 40 36 36 28 31 35 36 38 39
55 77 89 75 62 71 62 56 53 69 70 66 64 50 27 28 32 36 34 38 35 35 36 35 32 36 37 41 33 24 27 30 38 36 32 36 36 31 30 35 37 37 37
49 46 77 72 76 69 65 55 48 52 72 73 68 69 66 58 19 4 37 39 41 39 40 43 39 41 38 31 29 25 24 31 32 29 31 34 35 28 30 33 36 37 37
69 66 52 72 52 64 66 62 57 57 54 63 65 71 74 74 59 16 25 42 51 52 42 42 32 40 34 30 26 18 26 29 25 25 30 35 31 29 32 37 37 38 38
52 49 62 53 68 65 59 65 63 55 52 50 51 51 45 64 55 34 26 44 49 39 38 34 43 49 31 25 23 20 21 23 23 27 32 35 33 32 35 38 42 39 37
52 52 50 43 35 74 67 68 65 58 54 48 54 50 43 39 48 46 36 50 52 48 46 52 51 37 29 25 25 19 21 13 23 31 38 33 33 36 37 42 45 42 39
63 60 59 53 42 48 75 77 66 59 50 53 51 47 52 45 41 47 53 43 43 49 52 44 46 41 34 32 26 9 6 15 26 36 34 34 34 38 41 43 44 41 41
61 62 67 66 55 36 71 54 67 62 63 57 54 51 51 48 42 51 50 51 58 57 56 48 39 45 41 33 22 16 4 11 25 40 33 36 39 42 46 42 44 46 43
69 67 73 71 63 48 42 69 62 62 64 61 55 51 47 42 52 52 49 49 66 59 50 57 53 44 44 31 25 14 4 9 23 39 37 38 45 43 46 43 46 50 42
70 73 71 70 57 50 53 52 61 75 60 58 59 54 53 41 49 43 45 49 63 60 56 46 47 40 40 29 30 22 9 7 17 28 42 42 47 45 44 44 44 51 51
68 73 67 64 54 56 56 61 65 68 61 64 65 62 56 50 42 46 46 50 59 59 59 47 53 52 39 30 23 22 7 2 7 20 42 47 47 51 45 45 45 50 54
73 66 64 66 58 54 58 60 72 75 70 69 67 58 54 53 41 44 45 48 65 59 50 61 61 53 46 32 32 34 24 14 7 15 35 41 45 47 53 48 47 50 51
63 60 65 62 64 62 65 69 73 73 69 71 59 55 51 48 43 51 49 55 58 59 55 60 56 51 42 36 29 36 26 17 14 15 27 39 42 45 49 51 50 48 48
55 57 62 66 64 64 63 59 61 54 54 57 60 51 47 45 43 51 52 60 64 65 66 61 56 50 50 47 37 34 27 20 12 15 16 37 36 37 47 58 57 52 49
50 54 66 66 62 49 52 54 61 63 59 54 59 48 36 39 44 50 60 60 68 75 68 58 52 51 46 37 32 30 27 26 28 9 8 23 27 36 45 58 60 56 53
47 58 60 54 45 32 40 45 52 32 53 68 31 29 34 44 49 54 52 64 67 62 48 47 51 58 53 46 40 39 41 30 23 12 13 25 20 33 35 58 55 62 60
48 52 41 40 30 32 24 23 17 32 31 51 38 39 47 50 54 54 47 60 58 57 50 49 47 53 55 42 30 40 46 45 34 26 12 19 14 20 35 61 57 58 67
33 30 35 32 24 22 2 27 18 33 40 41 40 46 35 47 62 65 68 70 74 65 47 38 48 55 58 52 46 46 41 32 29 26 21 16 19 27 37 49 58 54 63
30 28 29 23 16 20 31 23 18 24 35 40 36 30 40 47 62 66 86 90 83 68 59 61 65 62 43 27 27 31 35 36 34 36 32 33 13 8 31 36 51 61 59
Wind_Direction_500mb
261 227 238 239 253 261 279 266 260 253 254 264 228 246 231 232 232 276 269 262 255 274 275 259 252 263 271 294 315 321 322 328 336 343 346 347 347 347 346 347 348 341 339
257 245 233 233 230 231 248 267 258 246 247 247 233 247 238 248 238 249 262 254 260 263 264 258 247 256 257 270 309 314 317 323 333 338 342 344 345 345 347 346 342 335 339
258 243 249 250 237 230 229 231 245 244 236 236 239 255 254 238 229 240 254 261 269 255 255 258 239 247 239 262 306 311 315 318 332 333 340 344 345 351 353 350 351 354 344
254 249 262 246 253 247 240 234 239 245 238 237 244 238 245 253 236 232 250 256 254 251 252 249 247 254 235 257 294 308 306 313 327 332 339 343 353 359 355 350 350 346 345
250 248 254 253 233 239 236 240 236 238 242 239 232 240 241 241 248 237 233 247 252 255 243 237 245 226 227 249 273 291 300 311 324 331 338 341 351 355 349 348 348 345 341
248 253 246 248 243 237 234 231 237 235 239 238 235 242 240 230 232 229 234 232 233 236 236 224 220 217 229 249 266 287 289 310 323 330 337 344 349 349 345 340 343 339 336
256 241 246 240 242 234 235 232 235 237 223 234 235 235 250 218 220 227 211 214 217 217 228 240 236 226 239 262 269 273 291 313 327 334 343 344 354 3 353 350 344 342 340
255 259 264 249 254 240 236 237 235 223 226 225 229 235 227 208 226 226 213 203 193 218 212 227 226 245 255 255 260 276 303 324 330 339 337 350 356 4 352 353 349 347 340
262 262 269 276 236 250 234 240 236 226 229 226 230 229 221 232 232 232 209 214 215 212 219 224 232 240 249 254 263 290 309 323 332 336 342 347 351 357 357 357 358 349 342
258 270 265 256 247 253 242 232 240 238 231 232 232 235 243 248 237 166 162 182 203 203 217 231 230 237 239 248 272 300 317 320 337 337 347 347 352 8 358 358 359 354 346
268 271 291 249 259 252 246 231 235 235 237 238 237 240 242 241 250 222 180 172 202 198 206 219 262 230 236 247 265 296 313 330 329 353 354 358 4 1 2 357 1 355 349
293 290 303 289 277 216 240 233 229 234 228 237 238 237 252 241 242 217 186 183 189 192 208 235 242 231 225 244 263 291 317 335 359 360 2 3 10 10 6 4 3 1 355
287 275 297 303 263 226 239 235 224 224 221 229 235 229 243 255 246 239 230 210 194 196 205 215 224 216 210 227 252 269 302 1 15 7 4 13 16 11 14 12 4 359 2
281 276 267 285 284 241 247 239 231 226 220 227 228 226 225 230 244 244 249 219 200 201 207 211 207 202 206 217 247 282 272 48 17 16 15 21 16 16 15 14 5 4 1
283 277 266 264 276 264 244 254 241 227 222 226 228 227 227 229 229 241 251 232 207 198 211 214 208 203 206 224 236 252 19 40 25 25 29 22 22 18 16 11 7 5 3
289 279 269 264 273 275 255 250 242 233 223 222 227 229 234 233 234 245 239 222 212 221 217 218 212 207 208 205 210 202 127 60 37 37 25 22 23 21 22 15 17 16 13
289 286 277 270 270 274 264 235 241 236 228 226 225 228 234 228 230 239 239 224 213 221 222 215 203 195 193 181 183 191 133 78 42 37 19 25 24 25 19 19 15 19 20
284 287 280 275 260 268 258 247 242 241 228 229 225 223 222 226 236 242 234 238 222 219 221 198 184 179 177 188 180 146 173 153 77 38 22 20 16 28 18 17 15 19 20
278 283 279 276 255 262 259 250 243 239 228 226 227 223 227 227 230 237 229 230 204 209 203 192 176 172 173 185 158 146 125 150 193 31 20 24 17 19 17 18 17 20 21
273 282 275 270 249 251 251 241 246 243 231 223 221 222 224 225 228 228 227 214 221 208 195 182 168 161 165 155 131 132 131 145 135 47 33 22 16 11 11 19 19 20 22
274 282 276 264 254 255 261 254 249 237 241 228 223 224 229 233 233 228 223 213 207 190 178 169 157 153 151 148 137 138 146 142 124 84 40 34 24 23 24 21 18 20 20
277 280 279 271 261 270 258 253 255 266 259 254 219 216 215 227 226 222 211 219 201 183 176 169 159 155 147 142 151 152 169 126 127 104 26 61 29 33 27 23 22 21 19
282 280 283 271 261 264 254 251 238 220 251 257 219 227 235 220 219 216 217 201 184 180 173 161 154 146 143 146 152 154 130 128 99 84 35 57 31 30 28 28 26 22 24
289 288 282 268 251 247 244 240 204 188 206 227 223 237 239 215 219 214 206 178 152 141 156 151 149 147 148 148 155 124 107 99 92 107 63 83 81 52 40 33 26 23 22
281 281 276 272 245 246 242 237 215 212 220 232 226 227 231 214 212 202 181 163 150 148 146 133 143 139 126 125 123 116 114 115 108 82 76 109 103 73 47 36 32 27 24
279 279 263 272 231 200 201 210 200 202 204 208 208 209 220 217 203 193 177 158 148 140 147 142 133 127 122 129 127 135 125 118 111 87 83 86 116 53 75 35 35 37 32
Wind_Speed_850mb
29 35 40 36 41 39 31 30 39 39 32 26 26 36 43 29 29 37 27 25 26 26 29 25 15 12 11 8 13 16 24 30 42 48 55 60 61 50 42 37 35 36 29
35 40 48 49 47 40 39 34 38 29 48 35 35 45 37 35 31 31 34 36 36 36 33 29 18 14 12 11 16 20 27 31 41 47 54 60 59 46 38 36 35 30 31
44 41 46 46 57 53 50 39 41 43 42 48 43 38 35 38 33 36 47 41 34 33 32 31 20 16 11 20 18 24 30 33 41 47 54 58 56 44 37 37 38 38 34
52 48 52 47 47 42 50 54 45 43 43 50 45 38 41 34 34 38 42 46 40 32 31 25 19 17 13 26 26 30 33 35 41 48 55 55 48 37 36 36 35 35 34
60 61 58 54 53 51 50 53 53 55 48 47 45 42 43 40 33 41 44 51 40 36 28 22 23 22 21 29 29 31 34 38 41 49 54 51 39 34 36 37 37 37 35
63 71 64 57 53 58 59 61 66 49 49 50 46 41 53 44 37 44 46 47 38 32 28 24 30 27 31 34 38 29 33 36 41 49 50 47 41 31 32 34 35 36 37
46 65 75 68 50 63 55 65 64 58 53 53 42 40 36 47 49 37 36 40 33 33 29 29 30 32 38 39 33 32 33 32 39 47 43 44 37 33 33 34 35 36 38
77 83 65 59 50 53 54 57 66 59 57 50 51 48 39 42 42 49 35 32 35 33 32 37 40 36 33 40 36 32 30 29 39 39 40 36 36 28 31 35 36 38 39
55 77 89 75 62 71 62 56 53 69 70 66 64 50 27 28 32 36 34 38 35 35 36 35 32 36 37 41 33 24 27 30 38 36 32 36 36 31 30 35 37 37 37
49 46 77 72 76 69 65 55 48 52 72 73 68 69 66 58 19 4 37 39 41 39 40 43 39 41 38 31 29 25 24 31 32 29 31 34 35 28 30 33 36 37 37
69 66 52 72 52 64 66 62 57 57 54 63 65 71 74 74 59 16 25 42 51 52 42 42 32 40 34 30 26 18 26 29 25 25 30 35 31 29 32 37 37 38 38
52 49 62 53 68 65 59 65 63 55 52 50 51 51 45 64 55 34 26 44 49 39 38 34 43 49 31 25 23 20 21 23 23 27 32 35 33 32 35 38 42 39 37
52 52 50 43 35 74 67 68 65 58 54 48 54 50 43 39 48 46 36 50 52 48 46 52 51 37 29 25 25 19 21 13 23 31 38 33 33 36 37 42 45 42 39
63 60 59 53 42 48 75 77 66 59 50 53 51 47 52 45 41 47 53 43 43 49 52 44 46 41 34 32 26 9 6 15 26 36 34 34 34 38 41 43 44 41 41
61 62 67 66 55 36 71 54 67 62 63 57 54 51 51 48 42 51 50 51 58 57 56 48 39 45 41 33 22 16 4 11 25 40 33 36 39 42 46 42 44 46 43
69 67 73 71 63 48 42 69 62 62 64 61 55 51 47 42 52 52 49 49 66 59 50 57 53 44 44 31 25 14 4 9 23 39 37 38 45 43 46 43 46 50 42
70 73 71 70 57 50 53 52 61 75 60 58 59 54 53 41 49 43 45 49 63 60 56 46 47 40 40 29 30 22 9 7 17 28 42 42 47 45 44 44 44 51 51
68 73 67 64 54 56 56 61 65 68 61 64 65 62 56 50 42 46 46 50 59 59 59 47 53 52 39 30 23 22 7 2 7 20 42 47 47 51 45 45 45 50 54
73 66 64 66 58 54 58 60 72 75 70 69 67 58 54 53 41 44 45 48 65 59 50 61 61 53 46 32 32 34 24 14 7 15 35 41 45 47 53 48 47 50 51
63 60 65 62 64 62 65 69 73 73 69 71 59 55 51 48 43 51 49 55 58 59 55 60 56 51 42 36 29 36 26 17 14 15 27 39 42 45 49 51 50 48 48
55 57 62 66 64 64 63 59 61 54 54 57 60 51 47 45 43 51 52 60 64 65 66 61 56 50 50 47 37 34 27 20 12 15 16 37 36 37 47 58 57 52 49
50 54 66 66 62 49 52 54 61 63 59 54 59 48 36 39 44 50 60 60 68 75 68 58 52 51 46 37 32 30 27 26 28 9 8 23 27 36 45 58 60 56 53
47 58 60 54 45 32 40 45 52 32 53 68 31 29 34 44 49 54 52 64 67 62 48 47 51 58 53 46 40 39 41 30 23 12 13 25 20 33 35 58 55 62 60
48 52 41 40 30 32 24 23 17 32 31 51 38 39 47 50 54 54 47 60 58 57 50 49 47 53 55 42 30 40 46 45 34 26 12 19 14 20 35 61 57 58 67
33 30 35 32 24 22 2 27 18 33 40 41 40 46 35 47 62 65 68 70 74 65 47 38 48 55 58 52 46 46 41 32 29 26 21 16 19 27 37 49 58 54 63
30 28 29 23 16 20 31 23 18 24 35 40 36 30 40 47 62 66 86 90 83 68 59 61 65 62 43 27 27 31 35 36 34 36 32 33 13 8 31 36 51 61 59
Wind_Direction_850mb
261 227 238 239 253 261 279 266 260 253 254 264 228 246 231 232 232 276 269 262 255 274 275 259 252 263 271 294 315 321 322 328 336 343 346 347 347 347 346 347 348 341 339
257 245 233 233 230 231 248 267 258 246 247 247 233 247 238 248 238 249 262 254 260 263 264 258 247 256 257 270 309 314 317 323 333 338 342 344 345 345 347 346 342 335 339
258 243 249 250 237 230 229 231 245 244 236 236 239 255 254 238 229 240 254 261 269 255 255 258 239 247 239 262 306 311 315 318 332 333 340 344 345 351 353 350 351 354 344
254 249 262 246 253 247 240 234 239 245 238 237 244 238 245 253 236 232 250 256 254 251 252 249 247 254 235 257 294 308 306 313 327 332 339 343 353 359 355 350 350 346 345
250 248 254 253 233 239 236 240 236 238 242 239 232 240 241 241 248 237 233 247 252 255 243 237 245 226 227 249 273 291 300 311 324 331 338 341 351 355 349 348 348 345 341
248 253 246 248 243 237 234 231 237 235 239 238 235 242 240 230 232 229 234 232 233 236 236 224 220 217 229 249 266 287 289 310 323 330 337 344 349 349 345 340 343 339 336
256 241 246 240 242 234 235 232 235 237 223 234 235 235 250 218 220 227 211 214 217 217 228 240 236 226 239 262 269 273 291 313 327 334 343 344 354 3 353 350 344 342 340
255 259 264 249 254 240 236 237 235 223 226 225 229 235 227 208 226 226 213 203 193 218 212 227 226 245 255 255 260 276 303 324 330 339 337 350 356 4 352 353 349 347 340
262 262 269 276 236 250 234 240 236 226 229 226 230 229 221 232 232 232 209 214 215 212 219 224 232 240 249 254 263 290 309 323 332 336 342 347 351 357 357 357 358 349 342
258 270 265 256 247 253 242 232 240 238 231 232 232 235 243 248 237 166 162 182 203 203 217 231 230 237 239 248 272 300 317 320 337 337 347 347 352 8 358 358 359 354 346
268 271 291 249 259 252 246 231 235 235 237 238 237 240 242 241 250 222 180 172 202 198 206 219 262 230 236 247 265 296 313 330 329 353 354 358 4 1 2 357 1 355 349
293 290 303 289 277 216 240 233 229 234 228 237 238 237 252 241 242 217 186 183 189 192 208 235 242 231 225 244 263 291 317 335 359 360 2 3 10 10 6 4 3 1 355
287 275 297 303 263 226 239 235 224 224 221 229 235 229 243 255 246 239 230 210 194 196 205 215 224 216 210 227 252 269 302 1 15 7 4 13 16 11 14 12 4 359 2
281 276 267 285 284 241 247 239 231 226 220 227 228 226 225 230 244 244 249 219 200 201 207 211 207 202 206 217 247 282 272 48 17 16 15 21 16 16 15 14 5 4 1
283 277 266 264 276 264 244 254 241 227 222 226 228 227 227 229 229 241 251 232 207 198 211 214 208 203 206 224 236 252 19 40 25 25 29 22 22 18 16 11 7 5 3
289 279 269 264 273 275 255 250 242 233 223 222 227 229 234 233 234 245 239 222 212 221 217 218 212 207 208 205 210 202 127 60 37 37 25 22 23 21 22 15 17 16 13
289 286 277 270 270 274 264 235 241 236 228 226 225 228 234 228 230 239 239 224 213 221 222 215 203 195 193 181 183 191 133 78 42 37 19 25 24 25 19 19 15 19 20
284 287 280 275 260 268 258 247 242 241 228 229 225 223 222 226 236 242 234 238 222 219 221 198 184 179 177 188 180 146 173 153 77 38 22 20 16 28 18 17 15 19 20
278 283 279 276 255 262 259 250 243 239 228 226 227 223 227 227 230 237 229 230 204 209 203 192 176 172 173 185 158 146 125 150 193 31 20 24 17 19 17 18 17 20 21
273 282 275 270 249 251 251 241 246 243 231 223 221 222 224 225 228 228 227 214 221 208 195 182 168 161 165 155 131 132 131 145 135 47 33 22 16 11 11 19 19 20 22
274 282 276 264 254 255 261 254 249 237 241 228 223 224 229 233 233 228 223 213 207 190 178 169 157 153 151 148 137 138 146 142 124 84 40 34 24 23 24 21 18 20 20
277 280 279 271 261 270 258 253 255 266 259 254 219 216 215 227 226 222 211 219 201 183 176 169 159 155 147 142 151 152 169 126 127 104 26 61 29 33 27 23 22 21 19
282 280 283 271 261 264 254 251 238 220 251 257 219 227 235 220 219 216 217 201 184 180 173 161 154 146 143 146 152 154 130 128 99 84 35 57 31 30 28 28 26 22 24
289 288 282 268 251 247 244 240 204 188 206 227 223 237 239 215 219 214 206 178 152 141 156 151 149 147 148 148 155 124 107 99 92 107 63 83 81 52 40 33 26 23 22
281 281 276 272 245 246 242 237 215 212 220 232 226 227 231 214 212 202 181 163 150 148 146 133 143 139 126 125 123 116 114 115 108 82 76 109 103 73 47 36 32 27 24
279 279 263 272 231 200 201 210 200 202 204 208 208 209 220 217 203 193 177 158 148 140 147 142 133 127 122 129 127 135 125 118 111 87 83 86 116 53 75 35 35 37 32